Flag for Congo Weather past 2 weeks in Brazzaville, Congo

Now
70 °F

Clear.


Feels Like: 70 °F
Forecast: 78 / 89 °F
Wind: 2 mph from North

Location: Brazzaville / Maya-Maya

Current Time: Jan 25, 2015 at 11:29:49 PM

Latest Report: Jan 25, 2015 at 10:00 PM


Visibility: 5 mi

Pressure: 29.89 "Hg

Humidity: 94%

Dew point: 68 °F

Location of BrazzavilleLocation

Historic Weather in Brazzaville — Graph

°F

Brazzaville temperature yesterday

Maximum temperature yesterday: 88 °F (at 2:00 PM)
Minimum temperature yesterday: 72 °F (at 6:00 AM)
Average temperature yesterday: 80 °F

Past Weeks' High & Low Weather Summary

 TemperatureHumidityPressure
High91 °F (Jan 20, 3:00 PM)94% (Jan 11, 10:00 PM)30.04 "Hg (Jan 11, 10:00 PM)
Low68 °F (Jan 17, 3:00 AM)48% (Jan 13, 11:00 AM)29.77 "Hg (Jan 20, 5:00 PM)
Average79 °F77%29.91 "Hg
* Reported Jan 10 9:00 PM — Jan 25 9:00 PM, Brazzaville, Weather by CustomWeather, © 2014

Note: Actual official high and low records may vary slightly from our data, if they occured in-between our weather recording intervals... More about our weather records

Advertising

Brazzaville weather history for previous 24 hours

 ConditionsComfort  
Time TempWeatherWind HumidityBarometerVisibility
9:00 PM
Jan 25
72 °FClear.2 mph94%29.89 "Hg5 mi
8:00 PM72 °FClear.2 mph94%29.86 "Hg5 mi
7:00 PM72 °FPassing clouds.3 mph94%29.83 "Hg5 mi
6:00 PM72 °FPassing clouds.1 mph94%29.83 "HgN/A
5:00 PM72 °FScattered clouds.3 mph88%29.83 "HgN/A
4:00 PM72 °FScattered clouds.8 mph94%29.83 "HgN/A
3:00 PM70 °FLight rain. Scattered clouds.7 mph94%29.89 "HgN/A
2:00 PM70 °FThunderstorms. Scattered clouds.3 mph94%29.92 "Hg5 mi
1:00 PM70 °FThunderstorms. Broken clouds.9 mph94%29.95 "Hg4 mi
12:55 PM70 °FThunderstorms. Broken clouds.9 mph94%29.95 "Hg4 mi
12:00 PM73 °FLight rain. Partly sunny.10 mph89%29.95 "Hg4 mi
11:00 AM81 °FPartly sunny.3 mph79%29.92 "Hg6 mi
10:00 AM81 °FPartly sunny.5 mph79%29.95 "HgN/A
9:00 AM79 °FPartly sunny.5 mph84%29.95 "HgN/A
8:00 AM79 °FPartly sunny.6 mph84%29.92 "Hg5 mi
7:00 AM77 °FPartly sunny.2 mph89%29.92 "Hg5 mi
6:00 AM75 °FPassing clouds.5 mph94%29.86 "Hg5 mi
5:00 AM77 °FPassing clouds.3 mph89%29.86 "Hg5 mi
4:00 AM75 °FPassing clouds.2 mph94%29.86 "Hg5 mi
3:00 AM77 °FClear.5 mph89%29.86 "Hg5 mi
2:00 AM79 °FClear.6 mph84%29.86 "Hg5 mi
1:00 AM79 °FClear.6 mph84%29.86 "Hg5 mi
12:00 AM81 °FClear.5 mph79%29.89 "Hg5 mi
11:00 PM
Jan 24
81 °FClear.3 mph79%29.89 "Hg5 mi
Weather by CustomWeather, © 2014

See weather overviewHow to use our weather pages